Time,TemperatureF,DewpointF,PressureIn,WindDirection,WindDirectionDegrees,WindSpeedMPH,WindSpeedGustMPH,Humidity,HourlyPrecipIn,Conditions,Clouds,dailyrainin,SoftwareType,DateUTC
2013-01-05 00:00:00,59.8,56.6,30.29,North,350,0.0,0.0,89,0.00,,,0.17,Wunderground v.1.15,2013-01-05 05:00:00,
2013-01-05 00:01:00,59.8,56.6,30.29,North,350,0.0,0.0,89,0.00,,,0.00,Wunderground v.1.15,2013-01-05 05:01:00,
2013-01-05 00:03:00,59.8,56.6,30.28,North,349,0.0,0.0,89,0.00,,,0.00,Wunderground v.1.15,2013-01-05 05:03:00,
2013-01-05 00:06:00,59.8,56.6,30.28,North,350,0.0,0.0,89,0.00,,,0.00,Wunderground v.1.15,2013-01-05 05:06:00,
2013-01-05 00:12:00,59.8,56.6,30.28,NE,37,0.0,1.0,89,0.00,,,0.00,Wunderground v.1.15,2013-01-05 05:12:00,
2013-01-05 00:17:00,59.8,56.6,30.28,NE,38,0.0,1.0,89,0.00,,,0.00,Wunderground v.1.15,2013-01-05 05:17:00,
2013-01-05 00:23:00,59.8,56.6,30.28,NE,38,0.0,0.0,89,0.00,,,0.00,Wunderground v.1.15,2013-01-05 05:23:00,
2013-01-05 00:28:00,59.8,56.6,30.28,NNE,29,0.0,2.0,89,0.00,,,0.00,Wunderground v.1.15,2013-01-05 05:28:00,
2013-01-05 00:34:00,59.8,56.6,30.28,NNE,28,0.0,0.0,89,0.00,,,0.00,Wunderground v.1.15,2013-01-05 05:34:00,
2013-01-05 00:39:00,59.8,56.6,30.28,NNE,24,0.0,0.0,89,0.00,,,0.00,Wunderground v.1.15,2013-01-05 05:39:00,
2013-01-05 00:45:00,59.8,56.6,30.28,NNE,24,0.0,0.0,89,0.00,,,0.00,Wunderground v.1.15,2013-01-05 05:45:00,
2013-01-05 00:50:00,59.8,56.6,30.28,NNE,30,0.0,2.0,89,0.00,,,0.00,Wunderground v.1.15,2013-01-05 05:50:00,
2013-01-05 00:56:00,59.7,56.8,30.28,NNE,18,0.0,2.0,90,0.00,,,0.00,Wunderground v.1.15,2013-01-05 05:56:00,
2013-01-05 01:01:00,59.6,56.7,30.28,North,351,0.0,0.0,90,0.00,,,0.00,Wunderground v.1.15,2013-01-05 06:01:00,
2013-01-05 01:06:00,59.4,56.5,30.28,North,350,0.0,0.0,90,0.00,,,0.00,Wunderground v.1.15,2013-01-05 06:06:00,
2013-01-05 01:12:00,59.3,56.4,30.28,North,355,1.0,1.0,90,0.00,,,0.00,Wunderground v.1.15,2013-01-05 06:12:00,
2013-01-05 01:17:00,59.2,56.6,30.28,North,355,1.0,2.0,91,0.00,,,0.00,Wunderground v.1.15,2013-01-05 06:17:00,
2013-01-05 01:22:00,59.1,56.5,30.27,North,355,1.0,3.0,91,0.00,,,0.00,Wunderground v.1.15,2013-01-05 06:22:00,
2013-01-05 01:28:00,59.1,56.5,30.28,North,355,0.0,3.0,91,0.00,,,0.00,Wunderground v.1.15,2013-01-05 06:28:00,
2013-01-05 01:34:00,59.0,56.4,30.28,North,355,0.0,0.0,91,0.00,,,0.00,Wunderground v.1.15,2013-01-05 06:34:00,
2013-01-05 01:39:00,59.0,56.4,30.28,North,355,0.0,2.0,91,0.00,,,0.00,Wunderground v.1.15,2013-01-05 06:39:00,
2013-01-05 01:45:00,59.0,56.4,30.28,North,355,0.0,0.0,91,0.00,,,0.00,Wunderground v.1.15,2013-01-05 06:45:00,
2013-01-05 01:51:00,59.0,56.7,30.27,NE,49,0.0,0.0,92,0.00,,,0.00,Wunderground v.1.15,2013-01-05 06:51:00,
2013-01-05 01:56:00,59.0,56.7,30.27,NE,49,0.0,0.0,92,0.00,,,0.00,Wunderground v.1.15,2013-01-05 06:56:00,
2013-01-05 02:02:00,59.0,56.7,30.27,NE,49,0.0,5.0,92,0.00,,,0.00,Wunderground v.1.15,2013-01-05 07:02:00,
2013-01-05 02:07:00,58.9,56.6,30.27,NE,49,0.0,5.0,92,0.00,,,0.00,Wunderground v.1.15,2013-01-05 07:07:00,
2013-01-05 02:13:00,58.9,56.6,30.27,East,93,0.0,0.0,92,0.00,,,0.00,Wunderground v.1.15,2013-01-05 07:13:00,
2013-01-05 02:18:00,59.0,56.7,30.26,East,92,0.0,0.0,92,0.00,,,0.00,Wunderground v.1.15,2013-01-05 07:18:00,
2013-01-05 02:24:00,59.0,56.7,30.26,East,91,0.0,0.0,92,0.00,,,0.00,Wunderground v.1.15,2013-01-05 07:24:00,
2013-01-05 02:29:00,58.9,56.6,30.26,East,91,0.0,0.0,92,0.00,,,0.00,Wunderground v.1.15,2013-01-05 07:29:00,
2013-01-05 02:35:00,58.9,56.6,30.26,East,90,0.0,1.0,92,0.00,,,0.00,Wunderground v.1.15,2013-01-05 07:35:00,
2013-01-05 02:41:00,58.9,56.6,30.26,North,360,1.0,1.0,92,0.00,,,0.00,Wunderground v.1.15,2013-01-05 07:41:00,
2013-01-05 02:46:00,58.9,56.6,30.26,North,5,0.0,1.0,92,0.00,,,0.00,Wunderground v.1.15,2013-01-05 07:46:00,
2013-01-05 02:52:00,58.9,56.6,30.26,North,10,0.0,0.0,92,0.00,,,0.00,Wunderground v.1.15,2013-01-05 07:52:00,
2013-01-05 02:57:00,58.9,56.6,30.26,NNE,12,0.0,0.0,92,0.00,,,0.00,Wunderground v.1.15,2013-01-05 07:57:00,
2013-01-05 03:03:00,58.8,56.5,30.26,NNE,13,0.0,4.0,92,0.00,,,0.00,Wunderground v.1.15,2013-01-05 08:03:00,
2013-01-05 03:08:00,58.8,56.5,30.25,NNE,14,0.0,4.0,92,0.00,,,0.00,Wunderground v.1.15,2013-01-05 08:08:00,
2013-01-05 03:14:00,58.8,56.8,30.25,NNE,13,0.0,0.0,93,0.00,,,0.00,Wunderground v.1.15,2013-01-05 08:14:00,
2013-01-05 03:19:00,58.7,56.7,30.26,NNE,13,0.0,0.0,93,0.00,,,0.00,Wunderground v.1.15,2013-01-05 08:19:00,
2013-01-05 03:24:00,58.7,56.7,30.26,NNE,13,0.0,0.0,93,0.00,,,0.00,Wunderground v.1.15,2013-01-05 08:24:00,
2013-01-05 03:30:00,58.7,56.7,30.26,NNE,15,0.0,0.0,93,0.00,,,0.00,Wunderground v.1.15,2013-01-05 08:30:00,
2013-01-05 03:35:00,58.6,56.6,30.26,NNE,16,0.0,3.0,93,0.00,,,0.00,Wunderground v.1.15,2013-01-05 08:35:00,
2013-01-05 03:41:00,58.6,56.6,30.26,NNE,15,0.0,0.0,93,0.00,,,0.00,Wunderground v.1.15,2013-01-05 08:41:00,
2013-01-05 03:46:00,58.6,56.6,30.26,NNE,15,0.0,0.0,93,0.00,,,0.00,Wunderground v.1.15,2013-01-05 08:46:00,
2013-01-05 03:52:00,58.6,56.6,30.26,NNE,15,0.0,0.0,93,0.00,,,0.00,Wunderground v.1.15,2013-01-05 08:52:00,
2013-01-05 03:57:00,58.6,56.6,30.26,NNE,15,0.0,0.0,93,0.00,,,0.00,Wunderground v.1.15,2013-01-05 08:57:00,
2013-01-05 04:03:00,58.6,56.6,30.26,NNE,15,0.0,3.0,93,0.00,,,0.00,Wunderground v.1.15,2013-01-05 09:03:00,
2013-01-05 04:08:00,58.5,56.8,30.26,NNE,15,0.0,3.0,94,0.00,,,0.00,Wunderground v.1.15,2013-01-05 09:08:00,
2013-01-05 04:14:00,58.5,56.8,30.26,NNE,16,0.0,1.0,94,0.00,,,0.00,Wunderground v.1.15,2013-01-05 09:14:00,
2013-01-05 04:19:00,58.5,56.8,30.26,NNE,15,0.0,1.0,94,0.00,,,0.00,Wunderground v.1.15,2013-01-05 09:19:00,
2013-01-05 04:25:00,58.4,56.7,30.26,NNE,16,0.0,1.0,94,0.00,,,0.00,Wunderground v.1.15,2013-01-05 09:25:00,
2013-01-05 04:30:00,58.4,56.7,30.26,NNE,16,0.0,1.0,94,0.00,,,0.00,Wunderground v.1.15,2013-01-05 09:30:00,
2013-01-05 04:36:00,58.4,56.7,30.26,NNE,15,0.0,2.0,94,0.00,,,0.00,Wunderground v.1.15,2013-01-05 09:36:00,
2013-01-05 04:41:00,58.3,56.6,30.26,NNE,15,0.0,0.0,94,0.00,,,0.00,Wunderground v.1.15,2013-01-05 09:41:00,
2013-01-05 04:47:00,58.2,56.8,30.27,NNE,16,0.0,0.0,95,0.00,,,0.00,Wunderground v.1.15,2013-01-05 09:47:00,
2013-01-05 04:52:00,58.1,56.7,30.27,NNE,15,0.0,0.0,95,0.00,,,0.00,Wunderground v.1.15,2013-01-05 09:52:00,
2013-01-05 04:57:00,58.0,56.6,30.27,NNE,17,0.0,0.0,95,0.00,,,0.00,Wunderground v.1.15,2013-01-05 09:57:00,
2013-01-05 05:03:00,57.9,56.5,30.27,NNE,21,0.0,1.0,95,0.00,,,0.00,Wunderground v.1.15,2013-01-05 10:03:00,
2013-01-05 05:08:00,57.8,56.4,30.27,NNE,22,0.0,1.0,95,0.00,,,0.00,Wunderground v.1.15,2013-01-05 10:08:00,
2013-01-05 05:14:00,57.8,56.4,30.26,NNE,22,0.0,0.0,95,0.00,,,0.00,Wunderground v.1.15,2013-01-05 10:14:00,
2013-01-05 05:20:00,57.7,56.3,30.27,ESE,103,0.0,2.0,95,0.00,,,0.00,Wunderground v.1.15,2013-01-05 10:20:00,
2013-01-05 05:25:00,57.6,56.2,30.27,ESE,103,0.0,2.0,95,0.00,,,0.00,Wunderground v.1.15,2013-01-05 10:25:00,
2013-01-05 05:31:00,57.6,56.2,30.27,ESE,102,0.0,0.0,95,0.00,,,0.00,Wunderground v.1.15,2013-01-05 10:31:00,
2013-01-05 05:36:00,57.5,56.1,30.27,East,92,0.0,1.0,95,0.00,,,0.00,Wunderground v.1.15,2013-01-05 10:36:00,
2013-01-05 05:41:00,57.4,56.0,30.27,East,82,0.0,0.0,95,0.00,,,0.00,Wunderground v.1.15,2013-01-05 10:41:00,
2013-01-05 05:47:00,57.3,55.9,30.27,ENE,74,1.0,4.0,95,0.00,,,0.00,Wunderground v.1.15,2013-01-05 10:47:00,
2013-01-05 05:53:00,57.2,55.8,30.27,ENE,74,1.0,3.0,95,0.00,,,0.00,Wunderground v.1.15,2013-01-05 10:53:00,
2013-01-05 05:58:00,57.1,55.7,30.27,NNE,19,1.0,3.0,95,0.00,,,0.00,Wunderground v.1.15,2013-01-05 10:58:00,
2013-01-05 06:04:00,57.0,55.6,30.27,NE,36,1.0,3.0,95,0.00,,,0.00,Wunderground v.1.15,2013-01-05 11:04:00,
2013-01-05 06:09:00,56.9,55.5,30.27,NE,42,1.0,5.0,95,0.00,,,0.00,Wunderground v.1.15,2013-01-05 11:09:00,
2013-01-05 06:15:00,56.9,55.2,30.27,ESE,117,1.0,1.0,94,0.00,,,0.00,Wunderground v.1.15,2013-01-05 11:15:00,
2013-01-05 06:20:00,56.9,55.2,30.27,ESE,114,0.0,1.0,94,0.00,,,0.00,Wunderground v.1.15,2013-01-05 11:20:00,
2013-01-05 06:26:00,56.9,55.2,30.27,East,80,0.0,1.0,94,0.00,,,0.00,Wunderground v.1.15,2013-01-05 11:26:00,
2013-01-05 06:31:00,56.9,55.2,30.28,East,80,0.0,1.0,94,0.00,,,0.00,Wunderground v.1.15,2013-01-05 11:31:00,
2013-01-05 06:36:00,56.8,55.1,30.28,NE,46,1.0,2.0,94,0.00,,,0.00,Wunderground v.1.15,2013-01-05 11:36:00,
2013-01-05 06:42:00,56.8,55.1,30.28,NE,48,1.0,2.0,94,0.00,,,0.00,Wunderground v.1.15,2013-01-05 11:42:00,
2013-01-05 06:47:00,56.8,55.1,30.28,ENE,69,1.0,4.0,94,0.00,,,0.00,Wunderground v.1.15,2013-01-05 11:47:00,
2013-01-05 06:53:00,56.8,55.1,30.28,East,94,0.0,1.0,94,0.00,,,0.00,Wunderground v.1.15,2013-01-05 11:53:00,
2013-01-05 06:58:00,56.8,55.1,30.28,East,87,0.0,2.0,94,0.00,,,0.00,Wunderground v.1.15,2013-01-05 11:58:00,
2013-01-05 07:04:00,56.7,55.0,30.28,East,82,1.0,5.0,94,0.00,,,0.00,Wunderground v.1.15,2013-01-05 12:04:00,
2013-01-05 07:09:00,56.7,54.7,30.28,East,80,0.0,5.0,93,0.00,,,0.00,Wunderground v.1.15,2013-01-05 12:09:00,
2013-01-05 07:15:00,56.7,54.7,30.28,North,360,0.0,2.0,93,0.00,,,0.00,Wunderground v.1.15,2013-01-05 12:15:00,
2013-01-05 07:20:00,56.7,54.4,30.28,NE,38,0.0,2.0,92,0.00,,,0.00,Wunderground v.1.15,2013-01-05 12:20:00,
2013-01-05 07:26:00,56.6,54.0,30.29,ENE,61,0.0,1.0,91,0.00,,,0.00,Wunderground v.1.15,2013-01-05 12:26:00,
2013-01-05 07:32:00,56.6,53.7,30.29,ENE,57,0.0,0.0,90,0.00,,,0.00,Wunderground v.1.15,2013-01-05 12:32:00,
2013-01-05 07:37:00,56.6,53.7,30.29,ENE,58,0.0,0.0,90,0.00,,,0.00,Wunderground v.1.15,2013-01-05 12:37:00,
2013-01-05 07:42:00,56.6,53.4,30.30,ENE,58,0.0,0.0,89,0.00,,,0.00,Wunderground v.1.15,2013-01-05 12:42:00,
2013-01-05 07:48:00,56.6,53.1,30.30,ENE,62,0.0,3.0,88,0.00,,,0.00,Wunderground v.1.15,2013-01-05 12:48:00,
2013-01-05 07:54:00,56.8,53.0,30.30,ENE,61,0.0,0.0,87,0.00,,,0.00,Wunderground v.1.15,2013-01-05 12:54:00,
2013-01-05 07:59:00,56.9,53.4,30.30,ENE,62,0.0,0.0,88,0.00,,,0.00,Wunderground v.1.15,2013-01-05 12:59:00,
2013-01-05 08:04:00,57.0,53.2,30.30,NE,53,0.0,5.0,87,0.00,,,0.00,Wunderground v.1.15,2013-01-05 13:04:00,
2013-01-05 08:10:00,57.0,52.5,30.30,NE,51,0.0,5.0,85,0.00,,,0.00,Wunderground v.1.15,2013-01-05 13:10:00,
2013-01-05 08:16:00,57.1,52.6,30.31,NE,46,0.0,3.0,85,0.00,,,0.00,Wunderground v.1.15,2013-01-05 13:16:00,
2013-01-05 08:21:00,57.1,52.3,30.31,NE,46,0.0,0.0,84,0.00,,,0.00,Wunderground v.1.15,2013-01-05 13:21:00,
2013-01-05 08:27:00,57.3,53.1,30.31,NNE,29,0.0,0.0,86,0.00,,,0.00,Wunderground v.1.15,2013-01-05 13:27:00,
2013-01-05 08:33:00,57.5,53.0,30.31,NNE,32,1.0,4.0,85,0.00,,,0.00,Wunderground v.1.15,2013-01-05 13:33:00,
2013-01-05 08:38:00,57.5,53.3,30.31,NNE,32,1.0,4.0,86,0.00,,,0.00,Wunderground v.1.15,2013-01-05 13:38:00,
2013-01-05 08:44:00,57.6,53.4,30.31,NE,34,0.0,2.0,86,0.00,,,0.00,Wunderground v.1.15,2013-01-05 13:44:00,
2013-01-05 08:49:00,57.6,53.4,30.31,NNE,28,1.0,3.0,86,0.00,,,0.00,Wunderground v.1.15,2013-01-05 13:49:00,
2013-01-05 08:55:00,57.7,53.5,30.31,NNE,30,0.0,1.0,86,0.00,,,0.00,Wunderground v.1.15,2013-01-05 13:55:00,
2013-01-05 09:00:00,57.7,53.5,30.31,NE,38,0.0,1.0,86,0.00,,,0.00,Wunderground v.1.15,2013-01-05 14:00:00,
2013-01-05 09:06:00,57.9,53.7,30.31,NE,37,0.0,3.0,86,0.00,,,0.00,Wunderground v.1.15,2013-01-05 14:06:00,
2013-01-05 09:12:00,58.0,53.8,30.32,NE,37,0.0,0.0,86,0.00,,,0.00,Wunderground v.1.15,2013-01-05 14:12:00,
2013-01-05 09:17:00,58.2,54.0,30.32,NE,38,0.0,2.0,86,0.00,,,0.00,Wunderground v.1.15,2013-01-05 14:17:00,
2013-01-05 09:22:00,58.3,53.8,30.32,NNE,28,0.0,4.0,85,0.00,,,0.00,Wunderground v.1.15,2013-01-05 14:22:00,
2013-01-05 09:28:00,58.4,53.9,30.31,East,101,1.0,4.0,85,0.00,,,0.00,Wunderground v.1.15,2013-01-05 14:28:00,
2013-01-05 09:33:00,58.5,54.3,30.31,ENE,60,0.0,0.0,86,0.00,,,0.00,Wunderground v.1.15,2013-01-05 14:33:00,
2013-01-05 09:39:00,58.7,53.9,30.31,ENE,75,0.0,2.0,84,0.00,,,0.00,Wunderground v.1.15,2013-01-05 14:39:00,
2013-01-05 09:44:00,58.9,54.1,30.31,North,11,1.0,1.0,84,0.00,,,0.00,Wunderground v.1.15,2013-01-05 14:44:00,
2013-01-05 09:50:00,59.1,54.3,30.31,ENE,69,1.0,1.0,84,0.00,,,0.00,Wunderground v.1.15,2013-01-05 14:50:00,
2013-01-05 09:55:00,59.3,54.5,30.31,NE,36,0.0,1.0,84,0.00,,,0.00,Wunderground v.1.15,2013-01-05 14:55:00,
2013-01-05 10:01:00,59.7,54.5,30.30,ESE,117,1.0,1.0,83,0.00,,,0.00,Wunderground v.1.15,2013-01-05 15:01:00,
2013-01-05 10:06:00,60.2,55.0,30.30,ENE,61,1.0,3.0,83,0.00,,,0.00,Wunderground v.1.15,2013-01-05 15:06:00,
2013-01-05 10:12:00,60.6,54.7,30.30,NNE,17,1.0,2.0,81,0.00,,,0.00,Wunderground v.1.15,2013-01-05 15:12:00,
2013-01-05 10:18:00,60.8,54.9,30.31,East,84,2.0,5.0,81,0.00,,,0.00,Wunderground v.1.15,2013-01-05 15:18:00,
2013-01-05 10:23:00,60.9,55.0,30.31,NNE,15,2.0,3.0,81,0.00,,,0.00,Wunderground v.1.15,2013-01-05 15:23:00,
2013-01-05 10:28:00,60.9,55.0,30.31,East,94,2.0,6.0,81,0.00,,,0.00,Wunderground v.1.15,2013-01-05 15:28:00,
2013-01-05 10:34:00,61.1,55.2,30.31,ENE,72,2.0,2.0,81,0.00,,,0.00,Wunderground v.1.15,2013-01-05 15:34:00,
2013-01-05 10:39:00,61.2,55.3,30.31,ENE,74,1.0,3.0,81,0.00,,,0.00,Wunderground v.1.15,2013-01-05 15:39:00,
2013-01-05 10:45:00,61.4,55.5,30.30,East,79,1.0,3.0,81,0.00,,,0.00,Wunderground v.1.15,2013-01-05 15:45:00,
2013-01-05 10:51:00,61.7,55.8,30.30,ENE,65,1.0,1.0,81,0.00,,,0.00,Wunderground v.1.15,2013-01-05 15:51:00,
2013-01-05 10:56:00,62.0,55.8,30.30,ENE,68,1.0,2.0,80,0.00,,,0.00,Wunderground v.1.15,2013-01-05 15:56:00,
2013-01-05 11:02:00,62.5,56.2,30.30,East,92,1.0,5.0,80,0.00,,,0.00,Wunderground v.1.15,2013-01-05 16:02:00,
2013-01-05 11:08:00,63.2,56.2,30.30,East,90,2.0,5.0,78,0.00,,,0.00,Wunderground v.1.15,2013-01-05 16:08:00,
2013-01-05 11:13:00,63.7,56.7,30.30,East,101,2.0,3.0,78,0.00,,,0.00,Wunderground v.1.15,2013-01-05 16:13:00,
2013-01-05 11:18:00,64.6,57.2,30.29,NE,55,1.0,3.0,77,0.00,,,0.00,Wunderground v.1.15,2013-01-05 16:18:00,
2013-01-05 11:24:00,65.2,57.1,30.29,East,91,1.0,4.0,75,0.00,,,0.00,Wunderground v.1.15,2013-01-05 16:24:00,
2013-01-05 11:29:00,65.6,57.8,30.28,NNE,22,2.0,4.0,76,0.00,,,0.00,Wunderground v.1.15,2013-01-05 16:29:00,
2013-01-05 11:35:00,66.2,58.0,30.28,NE,40,2.0,4.0,75,0.00,,,0.00,Wunderground v.1.15,2013-01-05 16:35:00,
2013-01-05 11:40:00,66.7,57.8,30.28,NE,42,2.0,2.0,73,0.00,,,0.00,Wunderground v.1.15,2013-01-05 16:40:00,
2013-01-05 11:46:00,66.9,58.0,30.27,East,98,2.0,4.0,73,0.00,,,0.00,Wunderground v.1.15,2013-01-05 16:46:00,
2013-01-05 11:51:00,67.2,58.2,30.27,East,96,2.0,3.0,73,0.00,,,0.00,Wunderground v.1.15,2013-01-05 16:51:00,
2013-01-05 11:57:00,67.8,58.4,30.27,East,92,2.0,5.0,72,0.00,,,0.00,Wunderground v.1.15,2013-01-05 16:57:00,
2013-01-05 12:02:00,67.9,58.5,30.26,ESE,111,2.0,4.0,72,0.00,,,0.00,Wunderground v.1.15,2013-01-05 17:02:00,
2013-01-05 12:08:00,68.6,58.8,30.26,ESE,107,2.0,4.0,71,0.00,,,0.00,Wunderground v.1.15,2013-01-05 17:08:00,
2013-01-05 12:13:00,68.7,58.5,30.26,East,97,2.0,4.0,70,0.00,,,0.00,Wunderground v.1.15,2013-01-05 17:13:00,
2013-01-05 12:19:00,68.6,58.4,30.25,East,94,3.0,6.0,70,0.00,,,0.00,Wunderground v.1.15,2013-01-05 17:19:00,
2013-01-05 12:24:00,68.6,58.8,30.25,East,84,3.0,5.0,71,0.00,,,0.00,Wunderground v.1.15,2013-01-05 17:24:00,
2013-01-05 12:30:00,69.2,59.4,30.25,East,79,2.0,2.0,71,0.00,,,0.00,Wunderground v.1.15,2013-01-05 17:30:00,
2013-01-05 12:35:00,69.6,59.4,30.24,North,355,2.0,3.0,70,0.00,,,0.00,Wunderground v.1.15,2013-01-05 17:35:00,
2013-01-05 12:41:00,70.2,59.6,30.24,ESE,102,2.0,2.0,69,0.00,,,0.00,Wunderground v.1.15,2013-01-05 17:41:00,
2013-01-05 12:46:00,70.4,59.7,30.23,ENE,62,1.0,4.0,69,0.00,,,0.00,Wunderground v.1.15,2013-01-05 17:46:00,
2013-01-05 12:52:00,70.9,59.8,30.23,SE,130,2.0,2.0,68,0.00,,,0.00,Wunderground v.1.15,2013-01-05 17:52:00,
2013-01-05 12:58:00,71.2,60.1,30.23,ESE,104,2.0,4.0,68,0.00,,,0.00,Wunderground v.1.15,2013-01-05 17:58:00,
2013-01-05 13:03:00,71.4,59.9,30.23,NNE,32,2.0,7.0,67,0.00,,,0.00,Wunderground v.1.15,2013-01-05 18:03:00,
2013-01-05 13:08:00,71.7,60.2,30.23,East,82,2.0,7.0,67,0.00,,,0.00,Wunderground v.1.15,2013-01-05 18:08:00,
2013-01-05 13:14:00,72.1,60.5,30.22,East,79,1.0,4.0,67,0.00,,,0.00,Wunderground v.1.15,2013-01-05 18:14:00,
2013-01-05 13:20:00,72.5,60.9,30.22,East,86,2.0,2.0,67,0.00,,,0.00,Wunderground v.1.15,2013-01-05 18:20:00,
2013-01-05 13:25:00,73.1,60.6,30.22,East,88,1.0,3.0,65,0.00,,,0.00,Wunderground v.1.15,2013-01-05 18:25:00,
2013-01-05 13:31:00,72.9,61.3,30.22,East,101,1.0,1.0,67,0.00,,,0.00,Wunderground v.1.15,2013-01-05 18:31:00,
2013-01-05 13:37:00,73.0,61.0,30.22,ESE,102,1.0,3.0,66,0.00,,,0.00,Wunderground v.1.15,2013-01-05 18:37:00,
2013-01-05 13:42:00,73.4,60.9,30.22,ESE,105,2.0,3.0,65,0.00,,,0.00,Wunderground v.1.15,2013-01-05 18:42:00,
2013-01-05 13:48:00,73.5,61.0,30.21,East,98,1.0,3.0,65,0.00,,,0.00,Wunderground v.1.15,2013-01-05 18:48:00,
2013-01-05 13:53:00,73.8,61.7,30.21,East,96,0.0,3.0,66,0.00,,,0.00,Wunderground v.1.15,2013-01-05 18:53:00,
2013-01-05 13:59:00,74.0,61.5,30.21,East,96,1.0,3.0,65,0.00,,,0.00,Wunderground v.1.15,2013-01-05 18:59:00,
2013-01-05 14:04:00,74.5,61.5,30.20,NNW,331,0.0,6.0,64,0.00,,,0.00,Wunderground v.1.15,2013-01-05 19:04:00,
2013-01-05 14:10:00,74.4,61.9,30.20,NNE,32,1.0,1.0,65,0.00,,,0.00,Wunderground v.1.15,2013-01-05 19:10:00,
2013-01-05 14:15:00,74.7,61.7,30.20,NNE,29,0.0,3.0,64,0.00,,,0.00,Wunderground v.1.15,2013-01-05 19:15:00,
2013-01-05 14:21:00,75.4,61.9,30.20,NNE,30,0.0,0.0,63,0.00,,,0.00,Wunderground v.1.15,2013-01-05 19:21:00,
2013-01-05 14:26:00,75.5,62.0,30.20,NNE,21,1.0,4.0,63,0.00,,,0.00,Wunderground v.1.15,2013-01-05 19:26:00,
2013-01-05 14:32:00,74.9,61.9,30.20,NNE,25,1.0,3.0,64,0.00,,,0.00,Wunderground v.1.15,2013-01-05 19:32:00,
2013-01-05 14:37:00,75.0,62.0,30.20,NNE,25,0.0,3.0,64,0.00,,,0.00,Wunderground v.1.15,2013-01-05 19:37:00,
2013-01-05 14:43:00,75.0,62.4,30.20,NNE,25,0.0,3.0,65,0.00,,,0.00,Wunderground v.1.15,2013-01-05 19:43:00,
2013-01-05 14:48:00,74.8,61.8,30.20,NNE,25,0.0,3.0,64,0.00,,,0.00,Wunderground v.1.15,2013-01-05 19:48:00,
2013-01-05 14:54:00,74.6,62.1,30.20,NNE,25,0.0,2.0,65,0.00,,,0.00,Wunderground v.1.15,2013-01-05 19:54:00,
2013-01-05 14:59:00,74.2,62.1,30.20,NNE,23,1.0,5.0,66,0.00,,,0.00,Wunderground v.1.15,2013-01-05 19:59:00,
2013-01-05 15:05:00,74.0,61.9,30.20,NNE,23,1.0,5.0,66,0.00,,,0.00,Wunderground v.1.15,2013-01-05 20:05:00,
2013-01-05 15:11:00,74.0,62.3,30.20,NNE,24,0.0,0.0,67,0.00,,,0.00,Wunderground v.1.15,2013-01-05 20:11:00,
2013-01-05 15:17:00,73.9,62.2,30.20,NNE,24,0.0,0.0,67,0.00,,,0.00,Wunderground v.1.15,2013-01-05 20:17:00,
2013-01-05 15:22:00,74.0,61.9,30.20,NNE,23,0.0,3.0,66,0.00,,,0.00,Wunderground v.1.15,2013-01-05 20:22:00,
2013-01-05 15:27:00,73.9,61.8,30.20,NNE,22,1.0,3.0,66,0.00,,,0.00,Wunderground v.1.15,2013-01-05 20:27:00,
2013-01-05 15:33:00,74.0,62.3,30.20,NNE,22,1.0,2.0,67,0.00,,,0.00,Wunderground v.1.15,2013-01-05 20:33:00,
2013-01-05 15:38:00,74.0,62.3,30.20,NNE,22,1.0,2.0,67,0.00,,,0.00,Wunderground v.1.15,2013-01-05 20:38:00,
2013-01-05 15:44:00,73.8,62.2,30.20,NNE,21,1.0,4.0,67,0.00,,,0.00,Wunderground v.1.15,2013-01-05 20:44:00,
2013-01-05 15:49:00,73.7,62.1,30.21,NNE,21,1.0,4.0,67,0.00,,,0.00,Wunderground v.1.15,2013-01-05 20:49:00,
2013-01-05 15:55:00,73.5,61.9,30.21,NNE,20,0.0,2.0,67,0.00,,,0.00,Wunderground v.1.15,2013-01-05 20:55:00,
2013-01-05 16:00:00,73.3,61.7,30.21,NNE,20,1.0,1.0,67,0.00,,,0.00,Wunderground v.1.15,2013-01-05 21:00:00,
2013-01-05 16:05:00,73.1,61.9,30.21,NNE,18,1.0,5.0,68,0.00,,,0.00,Wunderground v.1.15,2013-01-05 21:05:00,
2013-01-05 16:11:00,73.0,61.8,30.21,NNE,18,1.0,1.0,68,0.00,,,0.00,Wunderground v.1.15,2013-01-05 21:11:00,
2013-01-05 16:17:00,72.9,61.7,30.21,NNE,18,0.0,1.0,68,0.00,,,0.00,Wunderground v.1.15,2013-01-05 21:17:00,
2013-01-05 16:22:00,72.8,62.0,30.21,NNE,17,1.0,1.0,69,0.00,,,0.00,Wunderground v.1.15,2013-01-05 21:22:00,
2013-01-05 16:28:00,72.6,61.8,30.21,NNE,17,1.0,1.0,69,0.00,,,0.00,Wunderground v.1.15,2013-01-05 21:28:00,
2013-01-05 16:33:00,72.6,61.8,30.21,NNE,17,0.0,0.0,69,0.00,,,0.00,Wunderground v.1.15,2013-01-05 21:33:00,
2013-01-05 16:39:00,72.4,62.1,30.21,NNE,17,0.0,0.0,70,0.00,,,0.00,Wunderground v.1.15,2013-01-05 21:39:00,
2013-01-05 16:44:00,72.4,61.7,30.21,NNE,17,0.0,1.0,69,0.00,,,0.00,Wunderground v.1.15,2013-01-05 21:44:00,
2013-01-05 16:50:00,72.2,61.9,30.22,NNE,17,1.0,1.0,70,0.00,,,0.00,Wunderground v.1.15,2013-01-05 21:50:00,
2013-01-05 16:55:00,72.1,62.2,30.21,NNE,17,0.0,1.0,71,0.00,,,0.00,Wunderground v.1.15,2013-01-05 21:55:00,
2013-01-05 17:01:00,72.1,62.2,30.21,NNE,17,0.0,4.0,71,0.00,,,0.00,Wunderground v.1.15,2013-01-05 22:01:00,
2013-01-05 17:06:00,71.9,62.0,30.21,NNE,17,0.0,4.0,71,0.00,,,0.00,Wunderground v.1.15,2013-01-05 22:06:00,
2013-01-05 17:12:00,71.8,61.9,30.21,NNE,17,0.0,0.0,71,0.00,,,0.00,Wunderground v.1.15,2013-01-05 22:12:00,
2013-01-05 17:17:00,71.7,61.8,30.21,NNE,17,0.0,0.0,71,0.00,,,0.00,Wunderground v.1.15,2013-01-05 22:17:00,
2013-01-05 17:23:00,71.6,62.1,30.21,NNE,17,0.0,0.0,72,0.00,,,0.00,Wunderground v.1.15,2013-01-05 22:23:00,
2013-01-05 17:28:00,71.5,62.0,30.21,NNE,17,0.0,0.0,72,0.00,,,0.00,Wunderground v.1.15,2013-01-05 22:28:00,
2013-01-05 17:34:00,71.3,62.2,30.22,NNE,17,0.0,1.0,73,0.00,,,0.00,Wunderground v.1.15,2013-01-05 22:34:00,
2013-01-05 17:39:00,71.2,62.1,30.22,NNE,17,0.0,1.0,73,0.00,,,0.00,Wunderground v.1.15,2013-01-05 22:39:00,
2013-01-05 17:44:00,71.1,62.4,30.22,NNE,17,0.0,0.0,74,0.00,,,0.00,Wunderground v.1.15,2013-01-05 22:44:00,
2013-01-05 17:50:00,70.8,62.5,30.22,NNE,17,0.0,0.0,75,0.00,,,0.00,Wunderground v.1.15,2013-01-05 22:50:00,
2013-01-05 17:55:00,70.5,62.2,30.23,NNE,15,0.0,0.0,75,0.00,,,0.00,Wunderground v.1.15,2013-01-05 22:55:00,
2013-01-05 18:01:00,70.2,62.3,30.23,NNE,15,0.0,2.0,76,0.00,,,0.00,Wunderground v.1.15,2013-01-05 23:01:00,
2013-01-05 18:07:00,69.8,61.9,30.23,NNE,15,0.0,2.0,76,0.00,,,0.00,Wunderground v.1.15,2013-01-05 23:07:00,
2013-01-05 18:12:00,69.5,62.0,30.23,NNE,15,0.0,0.0,77,0.00,,,0.00,Wunderground v.1.15,2013-01-05 23:12:00,
2013-01-05 18:17:00,69.2,61.7,30.23,NNE,15,0.0,0.0,77,0.00,,,0.00,Wunderground v.1.15,2013-01-05 23:17:00,
2013-01-05 18:23:00,68.8,61.7,30.23,NNE,15,0.0,0.0,78,0.00,,,0.00,Wunderground v.1.15,2013-01-05 23:23:00,
2013-01-05 18:28:00,68.6,61.8,30.23,NNE,15,0.0,0.0,79,0.00,,,0.00,Wunderground v.1.15,2013-01-05 23:28:00,
2013-01-05 18:34:00,68.5,61.7,30.23,NNE,15,0.0,0.0,79,0.00,,,0.00,Wunderground v.1.15,2013-01-05 23:34:00,
2013-01-05 18:39:00,68.4,61.6,30.23,NNE,15,0.0,0.0,79,0.00,,,0.00,Wunderground v.1.15,2013-01-05 23:39:00,
2013-01-05 18:44:00,68.3,61.5,30.23,NNE,15,0.0,0.0,79,0.00,,,0.00,Wunderground v.1.15,2013-01-05 23:44:00,
2013-01-05 18:50:00,68.2,61.4,30.23,NNE,15,0.0,0.0,79,0.00,,,0.00,Wunderground v.1.15,2013-01-05 23:50:00,
2013-01-05 18:56:00,68.1,61.3,30.24,NNE,15,0.0,0.0,79,0.00,,,0.00,Wunderground v.1.15,2013-01-05 23:56:00,
2013-01-05 19:01:00,68.0,61.2,30.24,NNE,15,0.0,4.0,79,0.00,,,0.00,Wunderground v.1.15,2013-01-06 00:01:00,
2013-01-05 19:07:00,67.9,61.5,30.24,NNE,15,0.0,4.0,80,0.00,,,0.00,Wunderground v.1.15,2013-01-06 00:07:00,
2013-01-05 19:12:00,67.9,61.5,30.24,NNE,15,0.0,0.0,80,0.00,,,0.00,Wunderground v.1.15,2013-01-06 00:12:00,
2013-01-05 19:17:00,67.8,61.4,30.24,NNE,15,0.0,0.0,80,0.00,,,0.00,Wunderground v.1.15,2013-01-06 00:17:00,
2013-01-05 19:23:00,67.8,61.8,30.24,NNE,15,0.0,0.0,81,0.00,,,0.00,Wunderground v.1.15,2013-01-06 00:23:00,
2013-01-05 19:28:00,67.8,61.4,30.24,NNE,15,0.0,0.0,80,0.00,,,0.00,Wunderground v.1.15,2013-01-06 00:28:00,
2013-01-05 19:34:00,67.7,61.7,30.25,NNE,15,0.0,0.0,81,0.00,,,0.00,Wunderground v.1.15,2013-01-06 00:34:00,
2013-01-05 19:39:00,67.7,61.7,30.24,NNE,15,0.0,0.0,81,0.00,,,0.00,Wunderground v.1.15,2013-01-06 00:39:00,
2013-01-05 19:45:00,67.7,61.7,30.24,NNE,15,0.0,0.0,81,0.00,,,0.00,Wunderground v.1.15,2013-01-06 00:45:00,
2013-01-05 19:50:00,67.7,61.7,30.24,NNE,15,0.0,0.0,81,0.00,,,0.00,Wunderground v.1.15,2013-01-06 00:50:00,
2013-01-05 19:56:00,67.7,61.7,30.25,NNE,15,0.0,0.0,81,0.00,,,0.00,Wunderground v.1.15,2013-01-06 00:56:00,
2013-01-05 20:01:00,67.6,61.6,30.25,NNE,15,0.0,1.0,81,0.00,,,0.00,Wunderground v.1.15,2013-01-06 01:01:00,
2013-01-05 20:07:00,67.6,61.6,30.25,NNE,15,0.0,1.0,81,0.00,,,0.00,Wunderground v.1.15,2013-01-06 01:07:00,
2013-01-05 20:12:00,67.5,61.8,30.25,NNE,15,0.0,0.0,82,0.00,,,0.00,Wunderground v.1.15,2013-01-06 01:12:00,
2013-01-05 20:18:00,67.5,61.8,30.25,NNE,15,0.0,0.0,82,0.00,,,0.00,Wunderground v.1.15,2013-01-06 01:18:00,
2013-01-05 20:23:00,67.4,61.7,30.25,NNE,15,0.0,0.0,82,0.00,,,0.00,Wunderground v.1.15,2013-01-06 01:23:00,
2013-01-05 20:29:00,67.4,61.7,30.25,NNE,15,0.0,1.0,82,0.00,,,0.00,Wunderground v.1.15,2013-01-06 01:29:00,
2013-01-05 20:34:00,67.3,61.6,30.25,NNE,15,0.0,0.0,82,0.00,,,0.00,Wunderground v.1.15,2013-01-06 01:34:00,
2013-01-05 20:40:00,67.2,61.5,30.25,NNE,15,0.0,0.0,82,0.00,,,0.00,Wunderground v.1.15,2013-01-06 01:40:00,
2013-01-05 20:45:00,67.2,61.5,30.25,NNE,15,0.0,0.0,82,0.00,,,0.00,Wunderground v.1.15,2013-01-06 01:45:00,
2013-01-05 20:51:00,67.1,61.4,30.25,NNE,15,0.0,0.0,82,0.00,,,0.00,Wunderground v.1.15,2013-01-06 01:51:00,
2013-01-05 20:56:00,67.0,61.3,30.25,NNE,15,0.0,0.0,82,0.00,,,0.00,Wunderground v.1.15,2013-01-06 01:56:00,
2013-01-05 21:03:00,66.9,61.6,30.25,NNE,15,0.0,1.0,83,0.00,,,0.00,Wunderground v.1.15,2013-01-06 02:03:00,
2013-01-05 21:08:00,66.9,61.6,30.25,NNE,15,0.0,1.0,83,0.00,,,0.00,Wunderground v.1.15,2013-01-06 02:08:00,
2013-01-05 21:13:00,66.8,61.5,30.25,NNE,15,0.0,0.0,83,0.00,,,0.00,Wunderground v.1.15,2013-01-06 02:13:00,
2013-01-05 21:19:00,66.8,61.5,30.25,NNE,15,0.0,0.0,83,0.00,,,0.00,Wunderground v.1.15,2013-01-06 02:19:00,
2013-01-05 21:24:00,66.7,61.7,30.25,NNE,15,0.0,0.0,84,0.00,,,0.00,Wunderground v.1.15,2013-01-06 02:24:00,
2013-01-05 21:30:00,66.6,61.6,30.25,NNE,15,0.0,0.0,84,0.00,,,0.00,Wunderground v.1.15,2013-01-06 02:30:00,
2013-01-05 21:36:00,66.6,61.6,30.25,NNE,15,0.0,0.0,84,0.00,,,0.00,Wunderground v.1.15,2013-01-06 02:36:00,
2013-01-05 21:42:00,66.5,61.5,30.25,NNE,15,0.0,0.0,84,0.00,,,0.00,Wunderground v.1.15,2013-01-06 02:42:00,
2013-01-05 21:47:00,66.4,61.4,30.25,NNE,15,0.0,0.0,84,0.00,,,0.00,Wunderground v.1.15,2013-01-06 02:47:00,
2013-01-05 21:53:00,66.3,61.7,30.25,NNE,15,0.0,0.0,85,0.00,,,0.00,Wunderground v.1.15,2013-01-06 02:53:00,
2013-01-05 21:58:00,66.3,61.7,30.25,NNE,15,0.0,0.0,85,0.00,,,0.00,Wunderground v.1.15,2013-01-06 02:58:00,
2013-01-05 22:04:00,66.3,61.7,30.25,NNE,15,0.0,1.0,85,0.00,,,0.00,Wunderground v.1.15,2013-01-06 03:04:00,
2013-01-05 22:10:00,66.2,61.6,30.25,NNE,15,0.0,0.0,85,0.00,,,0.00,Wunderground v.1.15,2013-01-06 03:10:00,
2013-01-05 22:15:00,66.2,61.9,30.25,NNE,15,0.0,0.0,86,0.00,,,0.00,Wunderground v.1.15,2013-01-06 03:15:00,
2013-01-05 22:21:00,66.2,61.9,30.25,NNE,15,0.0,0.0,86,0.00,,,0.00,Wunderground v.1.15,2013-01-06 03:21:00,
2013-01-05 22:27:00,66.1,61.8,30.25,NNE,15,0.0,0.0,86,0.00,,,0.00,Wunderground v.1.15,2013-01-06 03:27:00,
2013-01-05 22:32:00,66.1,61.8,30.25,NNE,15,0.0,0.0,86,0.00,,,0.00,Wunderground v.1.15,2013-01-06 03:32:00,
2013-01-05 22:38:00,66.1,61.8,30.25,NNE,15,0.0,0.0,86,0.00,,,0.00,Wunderground v.1.15,2013-01-06 03:38:00,
2013-01-05 22:44:00,66.1,61.5,30.24,NNE,15,0.0,0.0,85,0.00,,,0.00,Wunderground v.1.15,2013-01-06 03:44:00,
2013-01-05 22:49:00,66.0,61.4,30.25,NNE,15,0.0,0.0,85,0.00,,,0.00,Wunderground v.1.15,2013-01-06 03:49:00,
2013-01-05 22:55:00,66.0,61.4,30.24,NNE,15,0.0,0.0,85,0.00,,,0.00,Wunderground v.1.15,2013-01-06 03:55:00,
2013-01-05 23:01:00,65.9,61.3,30.24,NNE,15,0.0,0.0,85,0.00,,,0.00,Wunderground v.1.15,2013-01-06 04:01:00,
2013-01-05 23:07:00,65.8,61.2,30.24,NNE,15,0.0,0.0,85,0.00,,,0.00,Wunderground v.1.15,2013-01-06 04:07:00,
2013-01-05 23:12:00,65.7,61.1,30.24,NNE,15,0.0,0.0,85,0.00,,,0.00,Wunderground v.1.15,2013-01-06 04:12:00,
2013-01-05 23:18:00,65.6,61.3,30.24,NNE,15,0.0,0.0,86,0.00,,,0.00,Wunderground v.1.15,2013-01-06 04:18:00,
2013-01-05 23:24:00,65.4,61.1,30.24,NNE,15,0.0,0.0,86,0.00,,,0.00,Wunderground v.1.15,2013-01-06 04:24:00,
2013-01-05 23:29:00,65.2,61.2,30.23,NNE,15,0.0,0.0,87,0.00,,,0.00,Wunderground v.1.15,2013-01-06 04:29:00,
2013-01-05 23:35:00,65.0,61.0,30.23,NNE,15,0.0,0.0,87,0.00,,,0.00,Wunderground v.1.15,2013-01-06 04:35:00,
2013-01-05 23:40:00,64.9,60.9,30.23,NNE,15,0.0,0.0,87,0.00,,,0.00,Wunderground v.1.15,2013-01-06 04:40:00,
2013-01-05 23:46:00,64.8,60.8,30.23,NNE,15,0.0,0.0,87,0.00,,,0.00,Wunderground v.1.15,2013-01-06 04:46:00,
2013-01-05 23:52:00,64.6,61.0,30.22,NNE,15,0.0,0.0,88,0.00,,,0.00,Wunderground v.1.15,2013-01-06 04:52:00,
2013-01-05 23:58:00,64.5,60.9,30.22,NNE,15,0.0,0.0,88,0.00,,,0.00,Wunderground v.1.15,2013-01-06 04:58:00,